Time,TemperatureF,DewpointF,PressureIn,WindDirection,WindDirectionDegrees,WindSpeedMPH,WindSpeedGustMPH,Humidity,HourlyPrecipIn,Conditions,Clouds,dailyrainin,SolarRadiationWatts/m^2,SoftwareType,DateUTC
2013-10-19 00:01:00,61.3,57.7,29.91,East,91,0.0,0.0,88,0.00,,,0.00,0.00,VWS V14.01,2013-10-19 04:01:00,
2013-10-19 00:06:00,61.3,57.7,29.90,East,91,0.0,0.0,88,0.00,,,0.00,0.00,VWS V14.01,2013-10-19 04:06:00,
2013-10-19 00:11:00,61.3,57.4,29.90,East,91,0.0,0.0,87,0.00,,,0.00,0.00,VWS V14.01,2013-10-19 04:11:00,
2013-10-19 00:16:00,61.3,57.4,29.90,East,91,0.0,0.0,87,0.00,,,0.00,0.00,VWS V14.01,2013-10-19 04:16:00,
2013-10-19 00:21:00,61.3,57.4,29.89,East,91,0.0,0.0,87,0.00,,,0.00,0.00,VWS V14.01,2013-10-19 04:21:00,
2013-10-19 00:26:00,61.3,57.4,29.89,East,91,0.0,0.0,87,0.00,,,0.00,0.00,VWS V14.01,2013-10-19 04:26:00,
2013-10-19 00:31:00,61.3,57.4,29.89,East,91,0.0,0.0,87,0.00,,,0.00,0.00,VWS V14.01,2013-10-19 04:31:00,
2013-10-19 00:36:00,61.3,57.4,29.89,East,91,0.0,0.0,87,0.00,,,0.00,0.00,VWS V14.01,2013-10-19 04:36:00,
2013-10-19 00:41:00,61.3,57.4,29.89,East,91,0.0,0.0,87,0.00,,,0.00,0.00,VWS V14.01,2013-10-19 04:41:00,
2013-10-19 00:46:00,61.3,57.4,29.89,East,91,0.0,0.0,87,0.00,,,0.00,0.00,VWS V14.01,2013-10-19 04:46:00,
2013-10-19 00:51:00,61.3,57.4,29.88,East,91,0.0,0.0,87,0.00,,,0.00,0.00,VWS V14.01,2013-10-19 04:51:00,
2013-10-19 00:56:00,61.3,57.4,29.88,East,91,0.0,0.0,87,0.00,,,0.00,0.00,VWS V14.01,2013-10-19 04:56:00,
2013-10-19 01:01:00,61.3,57.4,29.88,East,91,0.0,0.0,87,0.00,,,0.00,0.00,VWS V14.01,2013-10-19 05:01:00,
2013-10-19 01:06:00,61.3,57.4,29.88,East,91,0.0,0.0,87,0.00,,,0.00,0.00,VWS V14.01,2013-10-19 05:06:00,
2013-10-19 01:11:00,61.5,57.6,29.88,East,91,0.0,0.0,87,0.00,,,0.00,0.00,VWS V14.01,2013-10-19 05:11:00,
2013-10-19 01:16:00,61.3,57.4,29.88,East,91,0.0,0.0,87,0.00,,,0.00,0.00,VWS V14.01,2013-10-19 05:16:00,
2013-10-19 01:21:00,61.3,57.4,29.88,East,91,0.0,0.0,87,0.00,,,0.00,0.00,VWS V14.01,2013-10-19 05:21:00,
2013-10-19 01:26:00,61.3,57.1,29.88,East,91,0.0,0.0,86,0.00,,,0.00,0.00,VWS V14.01,2013-10-19 05:26:00,
2013-10-19 01:31:00,61.3,57.1,29.88,East,91,0.0,0.0,86,0.00,,,0.00,0.00,VWS V14.01,2013-10-19 05:31:00,
2013-10-19 01:36:00,61.3,57.1,29.87,East,91,0.0,0.0,86,0.00,,,0.00,0.00,VWS V14.01,2013-10-19 05:36:00,
2013-10-19 01:41:00,61.3,57.1,29.87,East,91,0.0,0.0,86,0.00,,,0.00,0.00,VWS V14.01,2013-10-19 05:41:00,
2013-10-19 01:46:00,61.3,57.1,29.87,East,91,0.0,0.0,86,0.00,,,0.00,0.00,VWS V14.01,2013-10-19 05:46:00,
2013-10-19 01:51:00,61.3,57.1,29.87,East,91,0.0,0.0,86,0.00,,,0.00,0.00,VWS V14.01,2013-10-19 05:51:00,
2013-10-19 01:56:00,61.2,57.0,29.87,East,91,0.0,0.0,86,0.00,,,0.00,0.00,VWS V14.01,2013-10-19 05:56:00,
2013-10-19 02:01:00,61.2,57.3,29.87,East,91,0.0,0.0,87,0.00,,,0.00,0.00,VWS V14.01,2013-10-19 06:01:00,
2013-10-19 02:06:00,61.2,57.3,29.87,East,91,0.0,0.0,87,0.00,,,0.00,0.00,VWS V14.01,2013-10-19 06:06:00,
2013-10-19 02:11:00,61.2,57.3,29.87,East,91,0.0,0.0,87,0.00,,,0.00,0.00,VWS V14.01,2013-10-19 06:11:00,
2013-10-19 02:16:00,61.2,57.3,29.87,East,91,0.0,0.0,87,0.00,,,0.00,0.00,VWS V14.01,2013-10-19 06:16:00,
2013-10-19 02:21:00,61.2,57.3,29.87,East,91,0.0,0.0,87,0.00,,,0.00,0.00,VWS V14.01,2013-10-19 06:21:00,
2013-10-19 02:26:00,61.2,57.3,29.87,East,91,0.0,0.0,87,0.00,,,0.00,0.00,VWS V14.01,2013-10-19 06:26:00,
2013-10-19 02:31:00,61.2,57.3,29.87,East,91,0.0,0.0,87,0.00,,,0.00,0.00,VWS V14.01,2013-10-19 06:31:00,
2013-10-19 02:36:00,61.2,57.3,29.86,East,91,0.0,0.0,87,0.00,,,0.00,0.00,VWS V14.01,2013-10-19 06:36:00,
2013-10-19 02:41:00,61.2,57.3,29.86,East,91,0.0,0.0,87,0.00,,,0.00,0.00,VWS V14.01,2013-10-19 06:41:00,
2013-10-19 02:46:00,61.2,57.3,29.86,East,91,0.0,0.0,87,0.00,,,0.00,0.00,VWS V14.01,2013-10-19 06:46:00,
2013-10-19 02:51:00,61.2,57.3,29.85,East,91,0.0,0.0,87,0.00,,,0.00,0.00,VWS V14.01,2013-10-19 06:51:00,
2013-10-19 02:56:00,61.2,57.3,29.85,East,91,0.0,0.0,87,0.00,,,0.00,0.00,VWS V14.01,2013-10-19 06:56:00,
2013-10-19 03:01:00,61.2,57.3,29.85,East,91,0.0,0.0,87,0.00,,,0.00,0.00,VWS V14.01,2013-10-19 07:01:00,
2013-10-19 03:06:00,61.2,57.3,29.85,East,91,0.0,0.0,87,0.00,,,0.00,0.00,VWS V14.01,2013-10-19 07:06:00,
2013-10-19 03:11:00,61.2,57.3,29.85,East,91,0.0,0.0,87,0.00,,,0.00,0.00,VWS V14.01,2013-10-19 07:11:00,
2013-10-19 03:16:00,61.0,57.1,29.85,East,91,0.0,0.0,87,0.00,,,0.00,0.00,VWS V14.01,2013-10-19 07:16:00,
2013-10-19 03:21:00,61.0,57.1,29.85,East,91,0.0,0.0,87,0.00,,,0.00,0.00,VWS V14.01,2013-10-19 07:21:00,
2013-10-19 03:26:00,61.0,57.1,29.85,East,91,0.0,0.0,87,0.00,,,0.00,0.00,VWS V14.01,2013-10-19 07:26:00,
2013-10-19 03:31:00,61.0,57.4,29.85,East,91,0.0,0.0,88,0.00,,,0.00,0.00,VWS V14.01,2013-10-19 07:31:00,
2013-10-19 03:36:00,61.0,57.4,29.85,East,91,2.0,2.0,88,0.00,,,0.00,0.00,VWS V14.01,2013-10-19 07:36:00,
2013-10-19 03:41:00,61.0,57.1,29.85,East,91,0.0,0.0,87,0.00,,,0.00,0.00,VWS V14.01,2013-10-19 07:41:00,
2013-10-19 03:46:00,61.0,57.1,29.85,East,91,0.0,0.0,87,0.00,,,0.00,0.00,VWS V14.01,2013-10-19 07:46:00,
2013-10-19 03:51:00,61.0,57.1,29.85,East,91,0.0,0.0,87,0.00,,,0.00,0.00,VWS V14.01,2013-10-19 07:51:00,
2013-10-19 03:56:00,61.0,57.1,29.85,East,91,0.0,0.0,87,0.00,,,0.00,0.00,VWS V14.01,2013-10-19 07:56:00,
2013-10-19 04:01:00,61.0,57.1,29.85,East,91,0.0,0.0,87,0.00,,,0.00,0.00,VWS V14.01,2013-10-19 08:01:00,
2013-10-19 04:06:00,61.2,57.3,29.83,East,91,0.0,0.0,87,0.00,,,0.00,0.00,VWS V14.01,2013-10-19 08:06:00,
2013-10-19 04:11:00,61.2,57.3,29.83,East,91,2.0,2.0,87,0.00,,,0.00,0.00,VWS V14.01,2013-10-19 08:11:00,
2013-10-19 04:16:00,61.2,57.3,29.83,East,91,0.0,0.0,87,0.00,,,0.00,0.00,VWS V14.01,2013-10-19 08:16:00,
2013-10-19 04:21:00,61.2,57.0,29.85,East,91,0.0,0.0,86,0.00,,,0.00,0.00,VWS V14.01,2013-10-19 08:21:00,
2013-10-19 04:26:00,61.0,56.8,29.85,East,91,0.0,0.0,86,0.00,,,0.00,0.00,VWS V14.01,2013-10-19 08:26:00,
2013-10-19 04:31:00,61.2,57.0,29.85,East,91,0.0,0.0,86,0.00,,,0.00,0.00,VWS V14.01,2013-10-19 08:31:00,
2013-10-19 04:36:00,61.2,56.7,29.85,East,91,1.0,1.0,85,0.00,,,0.00,0.00,VWS V14.01,2013-10-19 08:36:00,
2013-10-19 04:41:00,61.2,56.7,29.85,East,91,0.0,0.0,85,0.00,,,0.00,0.00,VWS V14.01,2013-10-19 08:41:00,
2013-10-19 04:46:00,61.3,57.1,29.85,East,91,0.0,0.0,86,0.00,,,0.00,0.00,VWS V14.01,2013-10-19 08:46:00,
2013-10-19 04:51:00,61.3,57.1,29.85,East,91,0.0,0.0,86,0.00,,,0.00,0.00,VWS V14.01,2013-10-19 08:51:00,
2013-10-19 04:56:00,61.3,57.1,29.85,East,91,0.0,0.0,86,0.00,,,0.00,0.00,VWS V14.01,2013-10-19 08:56:00,
2013-10-19 05:01:00,61.3,57.1,29.85,East,91,0.0,0.0,86,0.00,,,0.00,0.00,VWS V14.01,2013-10-19 09:01:00,
2013-10-19 05:06:00,61.3,57.1,29.84,East,91,0.0,0.0,86,0.00,,,0.00,0.00,VWS V14.01,2013-10-19 09:06:00,
2013-10-19 05:11:00,61.3,57.1,29.84,East,91,0.0,0.0,86,0.00,,,0.00,0.00,VWS V14.01,2013-10-19 09:11:00,
2013-10-19 05:16:00,61.3,57.4,29.84,East,91,0.0,0.0,87,0.00,,,0.00,0.00,VWS V14.01,2013-10-19 09:16:00,
2013-10-19 05:21:00,61.2,57.3,29.83,East,91,0.0,0.0,87,0.00,,,0.00,0.00,VWS V14.01,2013-10-19 09:21:00,
2013-10-19 05:26:00,61.0,57.1,29.83,East,91,0.0,0.0,87,0.00,,,0.00,0.00,VWS V14.01,2013-10-19 09:26:00,
2013-10-19 05:31:00,60.9,57.0,29.83,East,91,0.0,0.0,87,0.00,,,0.00,0.00,VWS V14.01,2013-10-19 09:31:00,
2013-10-19 05:36:00,60.9,57.0,29.85,East,91,0.0,0.0,87,0.00,,,0.00,0.00,VWS V14.01,2013-10-19 09:36:00,
2013-10-19 05:41:00,60.7,56.8,29.85,East,91,0.0,0.0,87,0.00,,,0.00,0.00,VWS V14.01,2013-10-19 09:41:00,
2013-10-19 05:46:00,60.7,56.8,29.85,East,91,0.0,0.0,87,0.00,,,0.00,0.00,VWS V14.01,2013-10-19 09:46:00,
2013-10-19 05:51:00,60.7,56.8,29.85,East,91,0.0,0.0,87,0.00,,,0.00,0.00,VWS V14.01,2013-10-19 09:51:00,
2013-10-19 05:56:00,60.7,56.8,29.85,East,91,0.0,0.0,87,0.00,,,0.00,0.00,VWS V14.01,2013-10-19 09:56:00,
2013-10-19 06:01:00,60.7,56.8,29.85,East,91,0.0,0.0,87,0.00,,,0.00,0.00,VWS V14.01,2013-10-19 10:01:00,
2013-10-19 06:06:00,60.7,56.8,29.84,East,91,0.0,0.0,87,0.00,,,0.00,0.00,VWS V14.01,2013-10-19 10:06:00,
2013-10-19 06:11:00,60.7,56.8,29.84,East,91,0.0,0.0,87,0.00,,,0.00,0.00,VWS V14.01,2013-10-19 10:11:00,
2013-10-19 06:16:00,60.7,57.1,29.84,East,91,0.0,0.0,88,0.00,,,0.00,0.00,VWS V14.01,2013-10-19 10:16:00,
2013-10-19 06:21:00,60.5,56.9,29.85,East,91,0.0,0.0,88,0.00,,,0.00,0.00,VWS V14.01,2013-10-19 10:21:00,
2013-10-19 06:26:00,60.5,56.9,29.85,East,91,0.0,0.0,88,0.00,,,0.00,0.00,VWS V14.01,2013-10-19 10:26:00,
2013-10-19 06:31:00,60.5,56.9,29.85,East,91,0.0,0.0,88,0.00,,,0.00,0.00,VWS V14.01,2013-10-19 10:31:00,
2013-10-19 06:36:00,60.5,56.9,29.85,East,91,0.0,0.0,88,0.00,,,0.00,0.00,VWS V14.01,2013-10-19 10:36:00,
2013-10-19 06:41:00,60.5,56.9,29.85,East,91,0.0,0.0,88,0.00,,,0.00,0.00,VWS V14.01,2013-10-19 10:41:00,
2013-10-19 06:46:00,60.7,57.1,29.85,East,91,0.0,0.0,88,0.00,,,0.00,0.00,VWS V14.01,2013-10-19 10:46:00,
2013-10-19 06:51:00,60.7,57.1,29.84,East,91,0.0,0.0,88,0.00,,,0.00,0.00,VWS V14.01,2013-10-19 10:51:00,
2013-10-19 06:56:00,60.7,57.4,29.84,East,91,0.0,0.0,89,0.00,,,0.00,0.00,VWS V14.01,2013-10-19 10:56:00,
2013-10-19 07:01:00,60.7,57.4,29.84,East,91,0.0,0.0,89,0.00,,,0.00,0.00,VWS V14.01,2013-10-19 11:01:00,
2013-10-19 07:06:00,60.7,57.4,29.84,East,91,0.0,0.0,89,0.00,,,0.00,0.00,VWS V14.01,2013-10-19 11:06:00,
2013-10-19 07:11:00,60.9,57.6,29.84,East,91,0.0,0.0,89,0.00,,,0.00,0.00,VWS V14.01,2013-10-19 11:11:00,
2013-10-19 07:16:00,60.9,57.6,29.84,East,91,0.0,0.0,89,0.00,,,0.00,0.00,VWS V14.01,2013-10-19 11:16:00,
2013-10-19 07:21:00,60.9,57.6,29.84,East,91,0.0,0.0,89,0.00,,,0.00,0.00,VWS V14.01,2013-10-19 11:21:00,
2013-10-19 07:26:00,60.7,57.4,29.84,East,91,0.0,0.0,89,0.00,,,0.00,0.00,VWS V14.01,2013-10-19 11:26:00,
2013-10-19 07:31:00,60.7,57.4,29.84,East,91,0.0,0.0,89,0.00,,,0.00,0.00,VWS V14.01,2013-10-19 11:31:00,
2013-10-19 07:36:00,60.7,57.4,29.84,East,91,0.0,0.0,89,0.00,,,0.00,0.00,VWS V14.01,2013-10-19 11:36:00,
2013-10-19 07:41:00,60.7,57.4,29.84,East,91,0.0,0.0,89,0.00,,,0.00,5.00,VWS V14.01,2013-10-19 11:41:00,
2013-10-19 07:46:00,60.9,57.6,29.84,East,91,0.0,0.0,89,0.00,,,0.00,9.00,VWS V14.01,2013-10-19 11:46:00,
2013-10-19 07:51:00,60.9,57.6,29.84,East,91,0.0,0.0,89,0.00,,,0.00,7.00,VWS V14.01,2013-10-19 11:51:00,
2013-10-19 07:56:00,60.9,57.6,29.84,East,91,0.0,0.0,89,0.00,,,0.00,7.00,VWS V14.01,2013-10-19 11:56:00,
2013-10-19 08:01:00,60.9,57.6,29.84,East,91,0.0,0.0,89,0.00,,,0.00,9.00,VWS V14.01,2013-10-19 12:01:00,
2013-10-19 08:06:00,61.0,57.7,29.84,East,91,0.0,0.0,89,0.00,,,0.00,12.00,VWS V14.01,2013-10-19 12:06:00,
2013-10-19 08:11:00,61.0,57.7,29.84,East,91,0.0,0.0,89,0.00,,,0.00,14.00,VWS V14.01,2013-10-19 12:11:00,
2013-10-19 08:16:00,61.2,57.9,29.84,East,91,0.0,0.0,89,0.00,,,0.00,19.00,VWS V14.01,2013-10-19 12:16:00,
2013-10-19 08:21:00,61.2,57.9,29.85,East,91,0.0,0.0,89,0.00,,,0.00,19.00,VWS V14.01,2013-10-19 12:21:00,
2013-10-19 08:26:00,61.2,57.9,29.85,East,91,0.0,0.0,89,0.00,,,0.00,26.00,VWS V14.01,2013-10-19 12:26:00,
2013-10-19 08:31:00,61.2,57.9,29.85,East,91,0.0,0.0,89,0.00,,,0.00,23.00,VWS V14.01,2013-10-19 12:31:00,
2013-10-19 08:36:00,61.2,57.9,29.85,East,91,0.0,0.0,89,0.00,,,0.00,30.00,VWS V14.01,2013-10-19 12:36:00,
2013-10-19 08:41:00,61.3,58.0,29.85,East,91,0.0,0.0,89,0.00,,,0.00,40.00,VWS V14.01,2013-10-19 12:41:00,
2013-10-19 08:46:00,61.5,58.2,29.85,East,91,0.0,0.0,89,0.00,,,0.00,44.00,VWS V14.01,2013-10-19 12:46:00,
2013-10-19 08:51:00,61.5,58.2,29.85,East,91,0.0,0.0,89,0.00,,,0.00,37.00,VWS V14.01,2013-10-19 12:51:00,
2013-10-19 08:56:00,61.6,58.3,29.85,East,91,0.0,0.0,89,0.00,,,0.00,51.00,VWS V14.01,2013-10-19 12:56:00,
2013-10-19 09:01:00,61.8,58.8,29.85,East,91,0.0,0.0,90,0.00,,,0.00,58.00,VWS V14.01,2013-10-19 13:01:00,
2013-10-19 09:06:00,61.8,58.8,29.85,East,91,0.0,0.0,90,0.00,,,0.00,51.00,VWS V14.01,2013-10-19 13:06:00,
2013-10-19 09:11:00,61.8,58.8,29.85,East,91,1.0,2.0,90,0.00,,,0.00,53.00,VWS V14.01,2013-10-19 13:11:00,
2013-10-19 09:16:00,61.8,58.8,29.85,East,91,0.0,0.0,90,0.00,,,0.00,60.00,VWS V14.01,2013-10-19 13:16:00,
2013-10-19 09:21:00,62.0,59.3,29.85,East,91,1.0,2.0,91,0.00,,,0.00,63.00,VWS V14.01,2013-10-19 13:21:00,
2013-10-19 09:26:00,62.0,59.3,29.85,East,91,0.0,0.0,91,0.00,,,0.00,74.00,VWS V14.01,2013-10-19 13:26:00,
2013-10-19 09:31:00,62.1,59.5,29.85,East,91,0.0,0.0,91,0.00,,,0.00,97.00,VWS V14.01,2013-10-19 13:31:00,
2013-10-19 09:36:00,62.1,59.5,29.85,East,91,0.0,0.0,91,0.00,,,0.00,105.00,VWS V14.01,2013-10-19 13:36:00,
2013-10-19 09:41:00,62.3,59.6,29.85,East,91,0.0,0.0,91,0.00,,,0.00,130.00,VWS V14.01,2013-10-19 13:41:00,
2013-10-19 09:46:00,62.4,60.0,29.85,East,91,0.0,0.0,92,0.00,,,0.00,165.00,VWS V14.01,2013-10-19 13:46:00,
2013-10-19 09:51:00,62.7,60.3,29.85,East,91,0.0,0.0,92,0.00,,,0.00,113.00,VWS V14.01,2013-10-19 13:51:00,
2013-10-19 09:56:00,62.9,60.5,29.85,East,91,0.0,0.0,92,0.00,,,0.00,98.00,VWS V14.01,2013-10-19 13:56:00,
2013-10-19 10:01:00,62.9,60.5,29.85,East,88,0.0,0.0,92,0.00,,,0.00,97.00,VWS V14.01,2013-10-19 14:01:00,
2013-10-19 10:06:00,63.1,60.7,29.85,East,88,0.0,0.0,92,0.00,,,0.00,132.00,VWS V14.01,2013-10-19 14:06:00,
2013-10-19 10:11:00,63.2,60.8,29.85,East,88,0.0,0.0,92,0.00,,,0.00,158.00,VWS V14.01,2013-10-19 14:11:00,
2013-10-19 10:16:00,63.4,61.0,29.85,East,88,0.0,0.0,92,0.00,,,0.00,158.00,VWS V14.01,2013-10-19 14:16:00,
2013-10-19 10:21:00,63.5,61.1,29.85,East,88,0.0,0.0,92,0.00,,,0.00,98.00,VWS V14.01,2013-10-19 14:21:00,
2013-10-19 10:26:00,63.7,61.3,29.85,East,88,0.0,0.0,92,0.00,,,0.00,90.00,VWS V14.01,2013-10-19 14:26:00,
2013-10-19 10:31:00,63.7,61.0,29.85,East,88,0.0,0.0,91,0.00,,,0.00,111.00,VWS V14.01,2013-10-19 14:31:00,
2013-10-19 10:36:00,63.9,61.2,29.85,East,88,0.0,0.0,91,0.00,,,0.00,123.00,VWS V14.01,2013-10-19 14:36:00,
2013-10-19 10:41:00,64.0,61.3,29.85,East,88,0.0,0.0,91,0.00,,,0.00,128.00,VWS V14.01,2013-10-19 14:41:00,
2013-10-19 10:46:00,64.2,61.5,29.85,East,88,0.0,0.0,91,0.00,,,0.00,118.00,VWS V14.01,2013-10-19 14:46:00,
2013-10-19 10:51:00,64.2,61.5,29.83,East,88,0.0,0.0,91,0.00,,,0.00,137.00,VWS V14.01,2013-10-19 14:51:00,
2013-10-19 10:56:00,64.5,61.8,29.83,East,88,0.0,0.0,91,0.00,,,0.00,109.00,VWS V14.01,2013-10-19 14:56:00,
2013-10-19 11:01:00,64.7,62.0,29.83,East,88,0.0,3.0,91,0.00,,,0.00,107.00,VWS V14.01,2013-10-19 15:01:00,
2013-10-19 11:06:00,65.0,62.3,29.83,East,88,0.0,0.0,91,0.00,,,0.00,127.00,VWS V14.01,2013-10-19 15:06:00,
2013-10-19 11:11:00,65.0,62.0,29.83,East,88,0.0,0.0,90,0.00,,,0.00,121.00,VWS V14.01,2013-10-19 15:11:00,
2013-10-19 11:16:00,65.2,62.2,29.83,East,88,0.0,1.0,90,0.00,,,0.00,95.00,VWS V14.01,2013-10-19 15:16:00,
2013-10-19 11:21:00,65.3,62.3,29.84,East,97,0.0,0.0,90,0.00,,,0.00,88.00,VWS V14.01,2013-10-19 15:21:00,
2013-10-19 11:26:00,65.3,62.0,29.84,East,97,0.0,0.0,89,0.00,,,0.00,83.00,VWS V14.01,2013-10-19 15:26:00,
2013-10-19 11:31:00,65.5,62.2,29.84,East,97,0.0,0.0,89,0.00,,,0.00,88.00,VWS V14.01,2013-10-19 15:31:00,
2013-10-19 11:36:00,65.5,62.2,29.84,East,97,0.0,0.0,89,0.00,,,0.00,105.00,VWS V14.01,2013-10-19 15:36:00,
2013-10-19 11:41:00,65.6,62.3,29.84,East,97,0.0,0.0,89,0.00,,,0.00,114.00,VWS V14.01,2013-10-19 15:41:00,
2013-10-19 11:46:00,65.8,62.5,29.84,East,97,0.0,0.0,89,0.00,,,0.00,153.00,VWS V14.01,2013-10-19 15:46:00,
2013-10-19 11:50:00,66.0,62.3,29.83,East,97,1.0,2.0,88,0.00,,,0.00,120.00,VWS V14.01,2013-10-19 15:50:00,
2013-10-19 11:55:00,66.1,62.5,29.83,East,97,2.0,2.0,88,0.00,,,0.00,74.00,VWS V14.01,2013-10-19 15:55:00,
2013-10-19 12:00:00,66.3,62.6,29.83,East,97,2.0,3.0,88,0.00,,,0.00,81.00,VWS V14.01,2013-10-19 16:00:00,
2013-10-19 12:05:00,66.3,62.6,29.83,East,97,0.0,0.0,88,0.00,,,0.00,91.00,VWS V14.01,2013-10-19 16:05:00,
2013-10-19 12:10:00,66.3,62.6,29.83,East,97,0.0,0.0,88,0.00,,,0.00,105.00,VWS V14.01,2013-10-19 16:10:00,
2013-10-19 12:15:00,66.4,62.7,29.83,East,97,0.0,0.0,88,0.00,,,0.00,100.00,VWS V14.01,2013-10-19 16:15:00,
2013-10-19 12:20:00,66.4,62.4,29.82,SSW,199,3.0,4.0,87,0.00,,,0.00,130.00,VWS V14.01,2013-10-19 16:20:00,
2013-10-19 12:25:00,66.6,62.6,29.82,South,182,0.0,1.0,87,0.00,,,0.00,113.00,VWS V14.01,2013-10-19 16:25:00,
2013-10-19 12:30:00,66.6,62.6,29.82,SE,143,3.0,5.0,87,0.00,,,0.00,107.00,VWS V14.01,2013-10-19 16:30:00,
2013-10-19 12:35:00,66.6,62.6,29.82,ESE,120,3.0,5.0,87,0.00,,,0.00,79.00,VWS V14.01,2013-10-19 16:35:00,
2013-10-19 12:40:00,66.6,62.6,29.82,SSE,155,3.0,4.0,87,0.00,,,0.00,107.00,VWS V14.01,2013-10-19 16:40:00,
2013-10-19 12:45:00,66.6,62.6,29.82,SE,135,0.0,0.0,87,0.00,,,0.00,127.00,VWS V14.01,2013-10-19 16:45:00,
2013-10-19 12:50:00,66.8,62.8,29.80,SSE,150,2.0,3.0,87,0.00,,,0.00,169.00,VWS V14.01,2013-10-19 16:50:00,
2013-10-19 12:55:00,66.9,62.6,29.80,South,174,0.0,3.0,86,0.00,,,0.00,183.00,VWS V14.01,2013-10-19 16:55:00,
2013-10-19 13:00:00,67.1,62.8,29.80,South,175,0.0,0.0,86,0.00,,,0.00,127.00,VWS V14.01,2013-10-19 17:00:00,
2013-10-19 13:05:00,67.3,62.6,29.79,South,176,0.0,0.0,85,0.00,,,0.00,211.00,VWS V14.01,2013-10-19 17:05:00,
2013-10-19 13:10:00,67.4,62.7,29.79,South,176,3.0,5.0,85,0.00,,,0.00,167.00,VWS V14.01,2013-10-19 17:10:00,
2013-10-19 13:15:00,67.6,62.9,29.79,South,176,3.0,3.0,85,0.00,,,0.00,165.00,VWS V14.01,2013-10-19 17:15:00,
2013-10-19 13:20:00,67.8,62.8,29.78,South,176,0.0,0.0,84,0.00,,,0.00,223.00,VWS V14.01,2013-10-19 17:20:00,
2013-10-19 13:25:00,68.1,63.1,29.78,SE,143,0.0,0.0,84,0.00,,,0.00,135.00,VWS V14.01,2013-10-19 17:25:00,
2013-10-19 13:30:00,68.3,63.3,29.78,SSW,200,2.0,5.0,84,0.00,,,0.00,193.00,VWS V14.01,2013-10-19 17:30:00,
2013-10-19 13:35:00,68.4,63.0,29.77,South,191,1.0,4.0,83,0.00,,,0.00,214.00,VWS V14.01,2013-10-19 17:35:00,
2013-10-19 13:40:00,68.8,63.4,29.77,SSE,158,5.0,5.0,83,0.00,,,0.00,225.00,VWS V14.01,2013-10-19 17:40:00,
2013-10-19 13:45:00,68.9,63.2,29.77,SSE,154,6.0,6.0,82,0.00,,,0.00,183.00,VWS V14.01,2013-10-19 17:45:00,
2013-10-19 13:50:00,68.9,63.2,29.77,SE,124,1.0,1.0,82,0.00,,,0.00,139.00,VWS V14.01,2013-10-19 17:50:00,
2013-10-19 13:55:00,68.9,63.2,29.77,South,171,0.0,0.0,82,0.00,,,0.00,165.00,VWS V14.01,2013-10-19 17:55:00,
2013-10-19 14:00:00,68.9,63.2,29.77,South,180,6.0,6.0,82,0.00,,,0.00,121.00,VWS V14.01,2013-10-19 18:00:00,
2013-10-19 14:05:00,68.9,63.2,29.77,SSW,203,0.0,0.0,82,0.00,,,0.00,160.00,VWS V14.01,2013-10-19 18:05:00,
2013-10-19 14:10:00,69.1,63.4,29.77,South,179,0.0,0.0,82,0.00,,,0.00,121.00,VWS V14.01,2013-10-19 18:10:00,
2013-10-19 14:15:00,69.3,63.6,29.77,SSW,205,0.0,2.0,82,0.00,,,0.00,139.00,VWS V14.01,2013-10-19 18:15:00,
2013-10-19 14:20:00,69.3,63.6,29.76,SSW,193,0.0,0.0,82,0.00,,,0.00,165.00,VWS V14.01,2013-10-19 18:20:00,
2013-10-19 14:25:00,69.3,63.2,29.76,South,187,2.0,6.0,81,0.00,,,0.00,165.00,VWS V14.01,2013-10-19 18:25:00,
2013-10-19 14:30:00,69.4,63.3,29.76,WNW,283,0.0,1.0,81,0.00,,,0.00,176.00,VWS V14.01,2013-10-19 18:30:00,
2013-10-19 14:35:00,69.6,63.5,29.76,SW,223,3.0,4.0,81,0.00,,,0.00,232.00,VWS V14.01,2013-10-19 18:35:00,
2013-10-19 14:40:00,69.6,63.5,29.76,SW,219,0.0,0.0,81,0.00,,,0.00,139.00,VWS V14.01,2013-10-19 18:40:00,
2013-10-19 14:45:00,69.8,63.4,29.76,SW,221,0.0,1.0,80,0.00,,,0.00,139.00,VWS V14.01,2013-10-19 18:45:00,
2013-10-19 14:50:00,69.8,63.4,29.77,SW,221,1.0,1.0,80,0.00,,,0.00,199.00,VWS V14.01,2013-10-19 18:50:00,
2013-10-19 14:55:00,69.9,63.5,29.77,West,269,4.0,6.0,80,0.00,,,0.00,167.00,VWS V14.01,2013-10-19 18:55:00,
2013-10-19 15:00:00,69.9,63.5,29.77,WSW,251,2.0,2.0,80,0.00,,,0.00,146.00,VWS V14.01,2013-10-19 19:00:00,
2013-10-19 15:05:00,70.1,63.7,29.76,WSW,258,3.0,3.0,80,0.00,,,0.00,134.00,VWS V14.01,2013-10-19 19:05:00,
2013-10-19 15:10:00,70.3,63.5,29.76,West,259,3.0,3.0,79,0.00,,,0.00,176.00,VWS V14.01,2013-10-19 19:10:00,
2013-10-19 15:15:00,70.3,63.5,29.76,West,263,0.0,0.0,79,0.00,,,0.00,156.00,VWS V14.01,2013-10-19 19:15:00,
2013-10-19 15:20:00,70.4,63.6,29.75,West,263,0.0,0.0,79,0.00,,,0.00,102.00,VWS V14.01,2013-10-19 19:20:00,
2013-10-19 15:25:00,70.4,63.2,29.75,West,263,0.0,0.0,78,0.00,,,0.00,113.00,VWS V14.01,2013-10-19 19:25:00,
2013-10-19 15:30:00,70.6,63.4,29.75,SSW,205,3.0,4.0,78,0.00,,,0.00,116.00,VWS V14.01,2013-10-19 19:30:00,
2013-10-19 15:35:00,70.4,63.2,29.74,South,171,3.0,6.0,78,0.00,,,0.00,118.00,VWS V14.01,2013-10-19 19:35:00,
2013-10-19 15:40:00,70.4,63.2,29.74,South,176,0.0,0.0,78,0.00,,,0.00,102.00,VWS V14.01,2013-10-19 19:40:00,
2013-10-19 15:45:00,70.4,63.2,29.74,South,181,3.0,4.0,78,0.00,,,0.00,114.00,VWS V14.01,2013-10-19 19:45:00,
2013-10-19 15:50:00,70.6,63.8,29.74,South,181,0.0,0.0,79,0.00,,,0.00,114.00,VWS V14.01,2013-10-19 19:50:00,
2013-10-19 15:55:00,70.6,63.8,29.74,South,181,0.0,0.0,79,0.00,,,0.00,83.00,VWS V14.01,2013-10-19 19:55:00,
2013-10-19 16:00:00,70.8,64.0,29.74,South,181,0.0,0.0,79,0.00,,,0.00,69.00,VWS V14.01,2013-10-19 20:00:00,
2013-10-19 16:05:00,70.6,63.8,29.75,SSE,158,0.0,2.0,79,0.00,,,0.00,69.00,VWS V14.01,2013-10-19 20:05:00,
2013-10-19 16:10:00,70.6,63.8,29.75,SSE,158,0.0,0.0,79,0.00,,,0.00,51.00,VWS V14.01,2013-10-19 20:10:00,
2013-10-19 16:15:00,70.6,63.8,29.75,SSW,199,0.0,3.0,79,0.00,,,0.00,39.00,VWS V14.01,2013-10-19 20:15:00,
2013-10-19 16:20:00,70.4,63.2,29.74,SSW,198,2.0,4.0,78,0.00,,,0.00,39.00,VWS V14.01,2013-10-19 20:20:00,
2013-10-19 16:25:00,70.3,63.1,29.74,SSW,198,0.0,0.0,78,0.00,,,0.00,32.00,VWS V14.01,2013-10-19 20:25:00,
2013-10-19 16:30:00,70.3,63.5,29.74,SSW,198,0.0,0.0,79,0.00,,,0.00,37.00,VWS V14.01,2013-10-19 20:30:00,
2013-10-19 16:35:00,70.1,63.3,29.74,SSE,151,2.0,3.0,79,0.00,,,0.00,49.00,VWS V14.01,2013-10-19 20:35:00,
2013-10-19 16:40:00,69.9,63.5,29.74,SSE,166,3.0,3.0,80,0.00,,,0.00,54.00,VWS V14.01,2013-10-19 20:40:00,
2013-10-19 16:45:00,69.9,63.5,29.74,South,181,3.0,3.0,80,0.00,,,0.00,37.00,VWS V14.01,2013-10-19 20:45:00,
2013-10-19 16:50:00,69.8,63.7,29.74,South,176,0.0,0.0,81,0.00,,,0.00,39.00,VWS V14.01,2013-10-19 20:50:00,
2013-10-19 16:55:00,69.6,63.9,29.74,SSW,208,0.0,1.0,82,0.00,,,0.00,26.00,VWS V14.01,2013-10-19 20:55:00,
2013-10-19 17:00:00,69.4,63.7,29.74,SSW,201,4.0,6.0,82,0.00,,,0.00,25.00,VWS V14.01,2013-10-19 21:00:00,
2013-10-19 17:05:00,69.3,63.9,29.74,SW,221,0.0,3.0,83,0.00,,,0.00,21.00,VWS V14.01,2013-10-19 21:05:00,
2013-10-19 17:10:00,69.1,63.7,29.74,SSW,206,0.0,0.0,83,0.00,,,0.00,30.00,VWS V14.01,2013-10-19 21:10:00,
2013-10-19 17:15:00,68.9,63.9,29.74,SSW,206,0.0,0.0,84,0.00,,,0.00,21.00,VWS V14.01,2013-10-19 21:15:00,
2013-10-19 17:20:00,68.9,63.9,29.76,SSW,206,0.0,0.0,84,0.00,,,0.00,42.00,VWS V14.01,2013-10-19 21:20:00,
2013-10-19 17:25:00,68.9,63.9,29.76,SSW,206,0.0,0.0,84,0.00,,,0.00,37.00,VWS V14.01,2013-10-19 21:25:00,
2013-10-19 17:30:00,68.9,63.9,29.76,SSW,206,2.0,3.0,84,0.00,,,0.00,23.00,VWS V14.01,2013-10-19 21:30:00,
2013-10-19 17:35:00,68.9,63.9,29.77,SSW,210,2.0,2.0,84,0.00,,,0.00,26.00,VWS V14.01,2013-10-19 21:35:00,
2013-10-19 17:40:00,68.9,63.9,29.77,WSW,243,0.0,0.0,84,0.00,,,0.00,16.00,VWS V14.01,2013-10-19 21:40:00,
2013-10-19 17:45:00,68.8,63.8,29.77,WSW,243,1.0,1.0,84,0.00,,,0.00,11.00,VWS V14.01,2013-10-19 21:45:00,
2013-10-19 17:50:00,68.8,63.8,29.77,SW,233,3.0,5.0,84,0.00,,,0.00,7.00,VWS V14.01,2013-10-19 21:50:00,
2013-10-19 17:55:00,68.8,63.8,29.77,SW,226,3.0,5.0,84,0.00,,,0.00,9.00,VWS V14.01,2013-10-19 21:55:00,
2013-10-19 18:00:00,68.6,63.6,29.77,SSW,200,3.0,4.0,84,0.00,,,0.00,9.00,VWS V14.01,2013-10-19 22:00:00,
2013-10-19 18:05:00,68.6,63.6,29.76,SSW,200,0.0,2.0,84,0.00,,,0.00,7.00,VWS V14.01,2013-10-19 22:05:00,
2013-10-19 18:10:00,68.4,63.4,29.76,South,174,3.0,4.0,84,0.00,,,0.00,5.00,VWS V14.01,2013-10-19 22:10:00,
2013-10-19 18:15:00,68.4,63.4,29.76,West,271,3.0,4.0,84,0.00,,,0.00,5.00,VWS V14.01,2013-10-19 22:15:00,
2013-10-19 18:20:00,68.4,63.7,29.77,West,271,3.0,3.0,85,0.00,,,0.00,0.00,VWS V14.01,2013-10-19 22:20:00,
2013-10-19 18:25:00,68.4,63.7,29.77,West,271,0.0,0.0,85,0.00,,,0.00,0.00,VWS V14.01,2013-10-19 22:25:00,
2013-10-19 18:30:00,68.3,63.6,29.77,West,271,0.0,0.0,85,0.00,,,0.00,0.00,VWS V14.01,2013-10-19 22:30:00,
2013-10-19 18:35:00,68.3,64.0,29.77,SSW,201,0.0,3.0,86,0.00,,,0.00,0.00,VWS V14.01,2013-10-19 22:35:00,
2013-10-19 18:40:00,68.1,63.8,29.77,SSW,201,0.0,0.0,86,0.00,,,0.00,0.00,VWS V14.01,2013-10-19 22:40:00,
2013-10-19 18:45:00,68.1,63.8,29.77,SSW,201,0.0,0.0,86,0.00,,,0.00,0.00,VWS V14.01,2013-10-19 22:45:00,
2013-10-19 18:50:00,67.9,63.9,29.78,SSW,201,0.0,0.0,87,0.00,,,0.00,0.00,VWS V14.01,2013-10-19 22:50:00,
2013-10-19 18:55:00,67.9,63.9,29.78,SSW,201,0.0,0.0,87,0.00,,,0.00,0.00,VWS V14.01,2013-10-19 22:55:00,
2013-10-19 19:00:00,67.8,64.1,29.78,SSW,201,0.0,0.0,88,0.00,,,0.00,0.00,VWS V14.01,2013-10-19 23:00:00,
2013-10-19 19:05:00,67.8,64.1,29.78,SSW,201,0.0,0.0,88,0.00,,,0.00,0.00,VWS V14.01,2013-10-19 23:05:00,
2013-10-19 19:10:00,67.6,63.9,29.78,SSW,201,0.0,0.0,88,0.00,,,0.00,0.00,VWS V14.01,2013-10-19 23:10:00,
2013-10-19 19:15:00,67.4,64.1,29.78,SSW,201,0.0,0.0,89,0.01,,,0.01,0.00,VWS V14.01,2013-10-19 23:15:00,
2013-10-19 19:20:00,67.3,64.0,29.78,SSW,201,0.0,0.0,89,0.01,,,0.01,0.00,VWS V14.01,2013-10-19 23:20:00,
2013-10-19 19:25:00,67.1,64.1,29.78,SSW,201,0.0,0.0,90,0.01,,,0.01,0.00,VWS V14.01,2013-10-19 23:25:00,
2013-10-19 19:30:00,66.9,63.9,29.78,SSW,201,0.0,0.0,90,0.01,,,0.01,0.00,VWS V14.01,2013-10-19 23:30:00,
2013-10-19 19:35:00,66.8,63.8,29.77,SSW,201,0.0,0.0,90,0.01,,,0.01,0.00,VWS V14.01,2013-10-19 23:35:00,
2013-10-19 19:40:00,66.6,63.6,29.77,SSW,201,0.0,0.0,90,0.01,,,0.01,0.00,VWS V14.01,2013-10-19 23:40:00,
2013-10-19 19:45:00,66.6,63.9,29.77,SSW,201,0.0,0.0,91,0.01,,,0.01,0.00,VWS V14.01,2013-10-19 23:45:00,
2013-10-19 19:50:00,66.4,63.7,29.78,SSW,201,0.0,0.0,91,0.01,,,0.01,0.00,VWS V14.01,2013-10-19 23:50:00,
2013-10-19 19:55:00,66.4,63.7,29.78,SSW,201,0.0,0.0,91,0.01,,,0.01,0.00,VWS V14.01,2013-10-19 23:55:00,
2013-10-19 20:00:00,66.3,63.6,29.78,SSW,201,0.0,0.0,91,0.01,,,0.01,0.00,VWS V14.01,2013-10-20 00:00:00,
2013-10-19 20:05:00,66.1,63.4,29.79,SSW,201,0.0,0.0,91,0.01,,,0.01,0.00,VWS V14.01,2013-10-20 00:05:00,
2013-10-19 20:10:00,66.0,63.3,29.79,SSW,201,0.0,0.0,91,0.01,,,0.01,0.00,VWS V14.01,2013-10-20 00:10:00,
2013-10-19 20:15:00,66.0,63.3,29.79,SSW,201,0.0,0.0,91,0.00,,,0.01,0.00,VWS V14.01,2013-10-20 00:15:00,
2013-10-19 20:20:00,65.8,63.1,29.79,SSW,201,0.0,0.0,91,0.00,,,0.01,0.00,VWS V14.01,2013-10-20 00:20:00,
2013-10-19 20:25:00,65.6,62.9,29.79,SSW,201,0.0,0.0,91,0.00,,,0.01,0.00,VWS V14.01,2013-10-20 00:25:00,
2013-10-19 20:30:00,65.6,62.9,29.79,SSW,201,0.0,0.0,91,0.00,,,0.01,0.00,VWS V14.01,2013-10-20 00:30:00,
2013-10-19 20:35:00,65.5,62.8,29.79,SSW,201,0.0,0.0,91,0.00,,,0.01,0.00,VWS V14.01,2013-10-20 00:35:00,
2013-10-19 20:40:00,65.5,62.8,29.79,SSW,201,0.0,0.0,91,0.00,,,0.01,0.00,VWS V14.01,2013-10-20 00:40:00,
2013-10-19 20:45:00,65.3,62.6,29.79,SSW,201,0.0,0.0,91,0.00,,,0.01,0.00,VWS V14.01,2013-10-20 00:45:00,
2013-10-19 20:50:00,65.2,62.5,29.79,SSW,201,0.0,0.0,91,0.00,,,0.01,0.00,VWS V14.01,2013-10-20 00:50:00,
2013-10-19 20:55:00,65.2,62.8,29.79,SSW,201,0.0,0.0,92,0.00,,,0.01,0.00,VWS V14.01,2013-10-20 00:55:00,
2013-10-19 21:00:00,65.2,62.8,29.79,NW,313,0.0,0.0,92,0.00,,,0.01,0.00,VWS V14.01,2013-10-20 01:00:00,
2013-10-19 21:05:00,65.0,62.6,29.79,NW,313,0.0,1.0,92,0.00,,,0.01,0.00,VWS V14.01,2013-10-20 01:05:00,
2013-10-19 21:10:00,65.0,62.6,29.79,NW,313,0.0,0.0,92,0.00,,,0.01,0.00,VWS V14.01,2013-10-20 01:10:00,
2013-10-19 21:15:00,64.8,62.4,29.79,NW,313,1.0,2.0,92,0.00,,,0.01,0.00,VWS V14.01,2013-10-20 01:15:00,
2013-10-19 21:20:00,64.8,62.4,29.80,NW,313,1.0,1.0,92,0.00,,,0.01,0.00,VWS V14.01,2013-10-20 01:20:00,
2013-10-19 21:25:00,64.7,62.3,29.80,NW,313,0.0,0.0,92,0.00,,,0.01,0.00,VWS V14.01,2013-10-20 01:25:00,
2013-10-19 21:30:00,64.5,62.1,29.80,NW,313,0.0,0.0,92,0.00,,,0.01,0.00,VWS V14.01,2013-10-20 01:30:00,
2013-10-19 21:35:00,64.5,62.1,29.81,NW,313,0.0,0.0,92,0.00,,,0.01,0.00,VWS V14.01,2013-10-20 01:35:00,
2013-10-19 21:40:00,64.5,62.1,29.81,NW,313,0.0,0.0,92,0.00,,,0.01,0.00,VWS V14.01,2013-10-20 01:40:00,
2013-10-19 21:45:00,64.3,61.9,29.81,NW,313,0.0,0.0,92,0.00,,,0.01,0.00,VWS V14.01,2013-10-20 01:45:00,
2013-10-19 21:50:00,64.2,61.8,29.80,NW,313,0.0,0.0,92,0.00,,,0.01,0.00,VWS V14.01,2013-10-20 01:50:00,
2013-10-19 21:55:00,64.0,61.6,29.80,NW,313,0.0,0.0,92,0.00,,,0.01,0.00,VWS V14.01,2013-10-20 01:55:00,
2013-10-19 22:00:00,63.9,61.5,29.80,NW,313,0.0,0.0,92,0.00,,,0.01,0.00,VWS V14.01,2013-10-20 02:00:00,
2013-10-19 22:05:00,63.7,61.3,29.81,NW,313,0.0,0.0,92,0.00,,,0.01,0.00,VWS V14.01,2013-10-20 02:05:00,
2013-10-19 22:10:00,63.5,61.1,29.81,NW,313,0.0,0.0,92,0.00,,,0.01,0.00,VWS V14.01,2013-10-20 02:10:00,
2013-10-19 22:15:00,63.4,61.0,29.81,NW,313,0.0,0.0,92,0.00,,,0.01,0.00,VWS V14.01,2013-10-20 02:15:00,
2013-10-19 22:20:00,63.2,60.8,29.82,NW,313,1.0,1.0,92,0.00,,,0.01,0.00,VWS V14.01,2013-10-20 02:20:00,
2013-10-19 22:25:00,63.2,60.8,29.82,NW,313,0.0,0.0,92,0.00,,,0.01,0.00,VWS V14.01,2013-10-20 02:25:00,
2013-10-19 22:30:00,63.1,60.7,29.82,NW,313,0.0,0.0,92,0.00,,,0.01,0.00,VWS V14.01,2013-10-20 02:30:00,
2013-10-19 22:35:00,62.9,60.5,29.81,NW,313,0.0,0.0,92,0.00,,,0.01,0.00,VWS V14.01,2013-10-20 02:35:00,
2013-10-19 22:40:00,62.7,60.3,29.81,NW,313,0.0,0.0,92,0.00,,,0.01,0.00,VWS V14.01,2013-10-20 02:40:00,
2013-10-19 22:45:00,62.6,60.2,29.81,NW,313,0.0,0.0,92,0.00,,,0.01,0.00,VWS V14.01,2013-10-20 02:45:00,
2013-10-19 22:50:00,62.6,60.2,29.82,NW,313,0.0,0.0,92,0.00,,,0.01,0.00,VWS V14.01,2013-10-20 02:50:00,
2013-10-19 22:55:00,62.4,60.0,29.82,NW,313,0.0,0.0,92,0.00,,,0.01,0.00,VWS V14.01,2013-10-20 02:55:00,
2013-10-19 23:00:00,62.3,60.0,29.82,NW,313,0.0,0.0,92,0.00,,,0.01,0.00,VWS V14.01,2013-10-20 03:00:00,
2013-10-19 23:05:00,62.1,59.8,29.82,NW,313,0.0,0.0,92,0.00,,,0.01,0.00,VWS V14.01,2013-10-20 03:05:00,
2013-10-19 23:10:00,62.0,59.7,29.82,NW,313,0.0,0.0,92,0.00,,,0.01,0.00,VWS V14.01,2013-10-20 03:10:00,
2013-10-19 23:15:00,61.8,59.5,29.82,NW,313,0.0,0.0,92,0.00,,,0.01,0.00,VWS V14.01,2013-10-20 03:15:00,
2013-10-19 23:20:00,61.6,59.3,29.82,NW,313,0.0,0.0,92,0.00,,,0.01,0.00,VWS V14.01,2013-10-20 03:20:00,
2013-10-19 23:25:00,61.6,59.3,29.82,NW,313,0.0,0.0,92,0.00,,,0.01,0.00,VWS V14.01,2013-10-20 03:25:00,
2013-10-19 23:30:00,61.5,59.2,29.82,NW,313,0.0,0.0,92,0.00,,,0.01,0.00,VWS V14.01,2013-10-20 03:30:00,
2013-10-19 23:35:00,61.3,59.0,29.82,NW,313,0.0,0.0,92,0.00,,,0.01,0.00,VWS V14.01,2013-10-20 03:35:00,
2013-10-19 23:40:00,61.2,58.9,29.82,NW,313,0.0,0.0,92,0.00,,,0.01,0.00,VWS V14.01,2013-10-20 03:40:00,
2013-10-19 23:45:00,61.2,58.9,29.82,NW,313,0.0,0.0,92,0.00,,,0.01,0.00,VWS V14.01,2013-10-20 03:45:00,
2013-10-19 23:50:00,61.0,58.7,29.82,NW,313,0.0,0.0,92,0.00,,,0.01,0.00,VWS V14.01,2013-10-20 03:50:00,
2013-10-19 23:55:00,60.9,58.6,29.82,NW,313,0.0,0.0,92,0.00,,,0.01,0.00,VWS V14.01,2013-10-20 03:55:00,